User: anonymous   Login
Location: Brno
(49.2000°N, 16.6330°E)
Time: 19:35:49
(UTC+01:00)
Language:

CARTOSAT-1 - Orbit

View from above orbital plane
View from above orbital plane
View from above satellite
View from above satellite

Ground track
Ground track

The orbit data is extracted from the following two-line orbital elements,

1 28649U 05017A   14327.11227966 -.00001470  00000-0 -17269-3 0  8219
2 28649 097.8200 037.9606 0002036 135.8298 224.3066 14.83459822517052
Epoch (UTC): 23 November 2014 02:41:40
Eccentricity: 0.0002036
inclination: 97.8200°
perigee height: 617 km
apogee height: 620 km
right ascension of ascending node: 37.9606°
argument of perigee: 135.8298°
revolutions per day: 14.83459822
mean anomaly at epoch: 224.3066°
orbit number at epoch: 51705

The dashed part of the orbit path shows where the satellite is in the earth's shadow,  

DLR